www.pogodaiklimat.ru

Погода и климат >> Архив погоды >> Малайзия >> Сибу


ПОГОДА в Сибу

  • Прогноз погоды в Сибу
  • Монитор погоды в Сибу

АРХИВ ПОГОДЫ в Сибу

Время (UTC), дата Ветер
(напр.,м/с)
 
Видим.   Явления Облачность Т
(С)
Тd
(С)
f
(%)
Тe
(С)
Тes
(С)
Комфортность P
(гПа)
Po
(гПа)
Тmin
(С)
Tmax
(С)
R
(мм)
R24
(мм)
S
(см)
21 8.09 штиль 0 3000 м дымка 9/6 30 м
[Sc Ac As]
+26.5 +26.1 98 +40 +40 очень
душно
1009.7 1006.1
00 9.09 С 3 15 км гроза без осадков 9/5 450 м
[Cb cap Ac As]
+23.1 +21.9 93 +31 +32 очень
душно
1012.8 1009.2 +23.1 9
03 9.09 С 3 15 км в посл. час гроза 9/5 480 м
[Cu med, cong Ac As]
+24.6 +22.9 90 +33 +36 очень
душно
1012.5 1008.9
06 9.09 ЮЗ 2 18 км мгла 9/4 540 м
[Cu med, cong Ac trans Ci fib]
+29.4 +23.8 72 +40 +48 очень
душно
1009.7 1006.1 0.8
09 9.09 СЗ 2 18 км мгла 9/4 540 м
[Cu med, cong Ac trans Ci fib]
+29.3 +23.5 71 +40 +41 очень
душно
1008.5 1004.9
12 9.09 СВ 1 12 км мгла 9/4 540 м
[Sc Ac trans Ci fib]
+26.0 +24.6 92 +37 +37 очень
душно
1010.2 1006.6 +30.5
15 9.09 В 1 12 км мгла 9/4 540 м
[Sc Ac As]
+24.8 +23.9 95 +34 +34 очень
душно
1011.9 1008.3
18 9.09 штиль 0 12 км дымка 9/6 60 м
[Sc Ac As]
+24.4 +23.9 97 +33 +33 очень
душно
1010.4 1006.8
21 9.09 штиль 0 12 км дымка 9/6 60 м
[Sc Ac trans Ci fib]
+24.2 +23.4 95 +32 +32 очень
душно
1010.3 1006.7
00 10.09 ЮВ 1 12 км мгла 9/5 540 м
[Sc Ac As]
+24.9 +22.9 89 +33 +34 очень
душно
1012.3 1008.7 +22.6 0.8
03 10.09 Ю 1 15 км в посл. час дождь 9/5 420 м
[Cu Sc Ac trans Ci fib]
+27.9 +25.5 87 +41 +48 опасность
перегрева
1012.4 1008.8
06 10.09 Ю 1 4000 м мгла {дождь} 9/5 540 м
[Cu hum Ac lent Ci fib]
+32.8 +25.7 66 +48 +54 опасность
перегрева
1009.2 1005.7 0.2
09 10.09 СЗ 3 5000 м мгла 9/5 450 м
[Cb cap Ac trans Ci fib]
+28.4 +24.1 78 +40 +41 очень
душно
1009.3 1005.7
12 10.09 З 1 6000 м зарница 9/5 450 м
[Cb cap Ac As]
+26.7 +23.9 85 +37 +37 очень
душно
1011.9 1008.3 +34.1
15 10.09 ЮВ 2 8000 м мгла 9/4 540 м
[Sc Ac trans Ci fib]
+24.3 +22.7 91 +32 +32 очень
душно
1013.3 1009.7
18 10.09 ЮВ 1 8000 м мгла 9/3 540 м
[Sc Ac trans Ci fib]
+23.5 +22.0 91 +30 +30 очень
душно
1011.9 1008.3
21 10.09 Ю 1 18 км 9/4 540 м
[Sc Ac trans Ci fib]
+23.0 +22.3 96 +31 +31 очень
душно
1011.8 1008.2
00 11.09 ЮВ 2 15 км мгла 9/5 540 м
[Sc Ac trans Ci fib]
+24.3 +22.8 91 +32 +33 очень
душно
1014.0 1010.4 +22.9 0.2
03 11.09 В 2 12 км мгла 9/4 420 м
[Cu hum Ac trans Ci fib]
+29.8 +24.5 73 +42 +48 опасность
перегрева
1014.0 1010.4
06 11.09 С 5 2000 м гроза, ливневой дождь 9/6 450 м
[Cb cap Ac As]
+27.9 +24.0 79 +39 +41 очень
душно
1011.2 1007.6
09 11.09 СЗ 2 12 км мгла {гроза, дождь} 9/5 480 м
[Cu hum Ac trans Ci fib]
+25.5 +22.5 83 +33 +34 очень
душно
1010.1 1006.5
12 11.09 штиль 0 14 км мгла {гроза} 9/4 540 м
[Sc Ac trans Ci fib]
+24.4 +23.2 93 +33 +33 очень
душно
1012.4 1008.8 +32.1 18
15 11.09 Ю 2 18 км 9/4 540 м
[Sc Ac trans Ci fib]
+23.9 +23.1 95 +32 +32 очень
душно
1013.3 1009.7
18 11.09 ЮВ 2 18 км 9/3 540 м
[Sc Ac trans Ci fib]
+24.3 +23.4 95 +33 +33 очень
душно
1012.1 1008.5
21 11.09 В 1 18 км 9/4 540 м
[Sc Ac As]
+24.2 +23.4 95 +32 +32 очень
душно
1011.7 1008.1
00 12.09 ЮВ 2 10 км мгла 9/3 <50 м
[Sc Ac As]
+25.0 +23.3 90 +33 +34 очень
душно
1013.5 1009.9 +23.4 18
03 12.09 З 2 12 км мгла 9/3 540 м
[Cu med, cong Ac trans Ci fib]
+30.3 +24.5 71 +43 +51 опасность
перегрева
1013.4 1009.8
06 12.09 СЗ 2 10 км мгла 9/4 540 м
[Cu med, cong Ac trans Ci fib]
+32.9 +23.2 57 +43 +50 опасность
перегрева
1010.2 1006.6
09 12.09 С 2 8000 м мгла 9/4 540 м
[Cu med, cong Ac trans Ci fib]
+30.3 +24.5 71 +43 +44 опасность
перегрева
1009.2 1005.6
12 12.09 З 1 7000 м мгла 9/4 540 м
[Sc Ac trans Ci fib]
+26.4 +23.8 86 +36 +36 очень
душно
1010.7 1007.1 +34.0
15 12.09 С 1 8000 м мгла 9/4 540 м
[Sc Ac trans Ci fib]
+24.6 +23.7 95 +33 +33 очень
душно
1012.2 1008.6
18 12.09 штиль 0 8000 м мгла 9/4 540 м
[Sc Ac As]
+24.5 +23.2 92 +33 +33 очень
душно
1010.9 1007.3
21 12.09 Ю 1 8000 м мгла 9/5 150 м
[Sc Ac As]
+23.9 +23.0 95 +32 +32 очень
душно
1010.5 1006.9
00 13.09 ЮВ 2 8000 м мгла 9/5 540 м
[Sc Ac trans Ci fib]
+24.4 +22.8 91 +32 +33 очень
душно
1012.4 1008.8 +23.5
03 13.09 Ю 3 12 км мгла 9/3 540 м
[Sc Ac trans Ci fib]
+29.8 +23.8 70 +41 +48 опасность
перегрева
1012.3 1008.7
06 13.09 ЮЗ 3 6000 м мгла 9/4 540 м
[Cu med, cong Ac trans Ci fib]
+32.8 +22.6 55 +42 +48 опасность
перегрева
1009.2 1005.6
09 13.09 ЮЗ 2 6000 м мгла 9/4 540 м
[Cu med, cong Ac trans Ci fib]
+31.5 +23.1 61 +42 +43 опасность
перегрева
1008.8 1005.2
12 13.09 Ю 1 6000 м мгла 9/4 540 м
[Sc Ac trans Ci fib]
+28.0 +23.9 78 +39 +39 очень
душно
1010.2 1006.6 +33.2
15 13.09 ЮВ 1 6000 м мгла 9/3 540 м
[Sc Ac trans Ci fib]
+26.1 +23.4 85 +35 +35 очень
душно
1011.2 1007.6
18 13.09 штиль 0 6000 м мгла 9/3 480 м
[Sc Ac trans Ci fib]
+24.6 +23.4 93 +33 +33 очень
душно
1009.8 1006.2
21 13.09 Ю 2 8000 м мгла 9/3 480 м
[Sc Ac As]
+24.3 +23.0 92 +32 +32 очень
душно
1009.7 1006.1
00 14.09 ЮВ 2 4000 м мгла 9/4 <50 м
[Sc Ac As]
+24.9 +23.3 91 +33 +34 очень
душно
1011.5 1007.9 +23.9
03 14.09 Ю 3 5000 м мгла 9/3 540 м
[Cu med, cong Ac trans Ci fib]
+29.7 +23.8 71 +41 +48 опасность
перегрева
1011.5 1007.9
06 14.09 ЮЗ 3 6000 м мгла 9/3 540 м
[Cu med, cong Ac trans Ci fib]
+32.5 +22.6 56 +42 +48 опасность
перегрева
1009.3 1005.7
09 14.09 Ю 3 6000 м мгла 9/4 540 м
[Cu med, cong Ac trans Ci fib]
+31.6 +20.6 52 +39 +40 очень
душно
1008.5 1004.9
12 14.09 ЮВ 1 4000 м мгла 9/4 540 м
[Sc Ac trans Ci fib]
+27.3 +21.4 70 +35 +35 очень
душно
1010.0 1006.4 +33.6
15 14.09 штиль 0 4000 м мгла 9/3 540 м
[Sc Ac trans Ci fib]
+24.2 +22.7 91 +32 +32 очень
душно
1011.4 1007.8
18 14.09 ЮВ 1 4000 м мгла 9/4 540 м
[Sc Ac trans Ci fib]
+23.8 +22.9 95 +32 +32 очень
душно
1010.2 1006.6
21 14.09 Ю 1 3000 м мгла 9/4 540 м
[Sc Ac trans Ci fib]
+23.1 +21.4 90 +31 +31 очень
душно
1009.7 1006.1
00 15.09 ЮВ 3 4000 м мгла 9/4 540 м
[Sc Ac trans Ci fib]
+24.0 +21.8 88 +31 +32 очень
душно
1011.3 1007.7 +22.5
03 15.09 З 1 4000 м мгла 9/3 480 м
[Cu hum Ac lent Ci fib]
+28.9 +22.7 69 +38 +48 очень
душно
1011.1 1007.5
06 15.09 З 1 4000 м мгла 9/3 540 м
[Cu hum Ac lent Ci fib]
+31.2 +22.5 60 +41 +50 опасность
перегрева
1008.8 1005.2
09 15.09 штиль 0 4000 м мгла 9/3 540 м
[Cu hum Ac lent Ci fib]
+30.8 +22.5 61 +40 +42 очень
душно
1007.5 1003.9
12 15.09 ЮВ 1 4000 м мгла 9/4 540 м
[Sc Ac trans Ci fib]
+26.6 +24.0 86 +37 +37 очень
душно
1009.6 1006.0 +31.6
15 15.09 штиль 0 4000 м мгла 9/5 150 м
[Sc Ac trans Ci fib]
+23.9 +23.1 95 +32 +32 очень
душно
1010.9 1007.3
18 15.09 ЮВ 1 3000 м дымка 9/5 90 м
[Sc Ac trans Ci fib]
+23.1 +22.6 97 +32 +32 очень
душно
1010.2 1006.6

 

Местоположение метеостанции Сибу (Малайзия): широта 2.33 долгота 111.83 высота над уровнем моря 31 м.

В архиве по умолчанию представлена погода в Сибу за последнюю неделю. Архивные данные за месяц целиком и за предыдущие месяцы, начиная с января 2011 года, Вы можете получить, выбрав интересующий диапазон дат из раскрывающегося списка и нажав кнопку "Ввод!".


*Определитесь, кто Вы:
робот инопланетянин человек

Внимание! Время в таблицах - всемирное. Для получения местного времени необходимо прибавить поправку, которая равна 8 ч.

Смотрите также архив погоды в соседних городах и на ближайших метеорологических станциях:

Погода в Бинталу (Малайзия) (165 км)
Погода в Кучинге (Малайзия) (192 км)
Погода на Путусиббау (Индонезия) (207 км)
Погода в Синтанге (Индонезия) (248 км)
Погода в Парохе (Индонезия) (288 км)
Погода в Нангапинохе (Индонезия) (298 км)
Погода в Мири (Малайзия) (326 км)
Погода в Понтианаке (Индонезия) (386 км)
Погода в Ранаи (Индонезия) (423 км)
Погода в Паоанкарая (Индонезия) (442 км)

Пояснения к столбцам:

Ветер - указаны скорость ветра в м/с - средняя за 10 мин, порывы в срок и между сроками (в фигурных скобках) и направление, откуда дует ветер: С - северный, СВ - северо-восточный, В - восточный, ЮВ - юго-восточный, Ю - южный, ЮЗ - юго-западный, З - западный, СЗ - северо-западный.
Видимость - горизонтальная дальность видимости в метрах или километрах. При видимости от 1 до 10 км при отсутствии осадков обычно наблюдается дымка, при ухудшении видимости до 1 км и менее - туман. В сухую погоду видимость может ухудшаться дымом, пылью или мглою.
Явления - указаны атмосферные явления, наблюдавшиеся в срок или в последний час перед сроком; фигурными скобками обозначены явления, наблюдавшиеся между сроками (за 1-3 часа до срока); квадратными скобками обозначены град или гололедные отложения с указанием их диаметра в мм.
Облачность - указаны через наклонную черту общая и нижняя облачность в баллах и высота нижней границы облаков в метрах; квадратными скобками обозначены формы облаков: Ci - перистые, Cs - перисто-слоистые, Cc - перисто-кучевые, Ac - высококучевые, As - высокослоистые, Sc - слоисто-кучевые, Ns - слоисто-дождевые, Cu - кучевые, Cb - кучево-дождевые. Подробнее классификацию облаков см. в Атласе облаков (PDF).
T - Температура воздуха - температура, измеренная на высоте 2 м над землей.
Td - Температура точки росы - температура, при понижении до которой содержащийся в воздухе водяной пар достигнет насыщения.
f - Относительная влажность воздуха - влажноcть воздуха, измеренная на высоте 2 м над землей.
Te - Эффективная температура - температура, которую ощущает одетый по сезону человек в тени. Характеристика душности погоды. При расчете учитывается влияние влажности воздуха и скорости ветра на теплоощущения человека.
Tes - Эффективная температура на солнце - температура, которую ощущает человек, с поправкой на солнечный нагрев. Характеристика знойности погоды. Зависит от высоты солнца над горизонтом, облачности и скорости ветра. Ночью, в пасмурную погоду, а также при ветре 12 м/с и более поправка равна нулю.
P - Атмосферное давление - приведенное к уровню моря атмосферное давление.
Po - Атмосферное давление - измеренное на уровне метеостанции атмосферное давление.
Tmin - Минимальная температура - минимум температуры воздуха на высоте 2 м над землей.
Tmax - Максимальная температура - максимум температуры воздуха на высоте 2 м над землей.
R - Количество осадков - Количество выпавших осадков за период времени, мм. При наведении курсора мыши на число - период времени, за который выпало указанное количество осадков.
R24 - Количество осадков - Количество выпавших осадков за 24 часа, мм.
S - Снежный покров - Высота снежного покрова, см. При наведении курсора мыши на число - состояние снежного покрова и степень покрытия местности в баллах.